ASA67 PASI-PAKT

Flight info

Callsign ASA67
Flight time 0h 29m
Altitude 17000
Route TOKEE1 TOKEE V311 UDENE
Aircraft B737/M-SDE2E3FGHIRWXY/LB1

Departure

Time 2026-04-16 20:45
Airport Sitka Rocky Gutierrez Airport (PASI)

Arrival

Time 2026-04-16 21:14
Airport Ketchikan International Airport (PAKT)
Time Latitude Longitude Altitude Speed Heading
2026-04-16 20:32 57.05235 -135.36602 34 ft 0 kts 76°
2026-04-16 20:37 57.05232 -135.36628 34 ft 4 kts 74°
2026-04-16 20:37 57.05224 -135.36676 32 ft 4 kts 70°
2026-04-16 20:37 57.05214 -135.36722 33 ft 4 kts 64°
2026-04-16 20:37 57.05208 -135.36741 34 ft 1 kts 63°
2026-04-16 20:38 57.05208 -135.36742 32 ft 0 kts 63°
2026-04-16 20:39 57.05209 -135.36740 34 ft 1 kts 63°
2026-04-16 20:39 57.05218 -135.36740 33 ft 2 kts 335°
2026-04-16 20:40 57.05234 -135.36787 33 ft 7 kts 297°
2026-04-16 20:40 57.05269 -135.36881 34 ft 10 kts 311°
2026-04-16 20:40 57.05316 -135.36969 33 ft 9 kts 315°
2026-04-16 20:40 57.05362 -135.37053 33 ft 9 kts 315°
2026-04-16 20:41 57.05402 -135.37136 32 ft 5 kts 291°
2026-04-16 20:41 57.05400 -135.37164 34 ft 3 kts 252°
2026-04-16 20:41 57.05398 -135.37171 34 ft 0 kts 247°
2026-04-16 20:43 57.05398 -135.37172 34 ft 0 kts 247°
2026-04-16 20:43 57.05390 -135.37191 34 ft 4 kts 234°
2026-04-16 20:44 57.05355 -135.37267 35 ft 10 kts 228°
2026-04-16 20:44 57.05306 -135.37240 35 ft 15 kts 133°
2026-04-16 20:44 57.05031 -135.36738 35 ft 96 kts 135°
2026-04-16 20:44 57.04392 -135.35597 130 ft 150 kts 137°
2026-04-16 20:45 57.03662 -135.34182 898 ft 148 kts 140°
2026-04-16 20:45 57.02725 -135.33482 1607 ft 149 kts 180°
2026-04-16 20:45 57.01669 -135.33697 2356 ft 159 kts 199°
2026-04-16 20:45 57.00639 -135.34795 2855 ft 188 kts 224°
2026-04-16 20:46 56.99835 -135.36895 3230 ft 216 kts 240°
2026-04-16 20:46 56.99067 -135.39359 4096 ft 220 kts 240°
2026-04-16 20:46 56.98319 -135.41761 5262 ft 216 kts 241°
2026-04-16 20:46 56.97564 -135.44163 6150 ft 220 kts 238°
2026-04-16 20:47 56.96407 -135.46000 6895 ft 238 kts 206°
2026-04-16 20:47 56.94655 -135.46441 7366 ft 273 kts 176°
2026-04-16 20:47 56.92821 -135.45227 8254 ft 291 kts 150°
2026-04-16 20:47 56.91291 -135.42702 9265 ft 303 kts 130°
2026-04-16 20:48 56.90036 -135.39546 10300 ft 312 kts 124°
2026-04-16 20:48 56.88812 -135.36081 10850 ft 335 kts 122°
2026-04-16 20:48 56.87528 -135.32360 11312 ft 360 kts 122°
2026-04-16 20:48 56.86140 -135.28360 11736 ft 383 kts 122°
2026-04-16 20:49 56.84645 -135.24144 12129 ft 405 kts 123°
2026-04-16 20:49 56.83068 -135.19776 12695 ft 418 kts 123°
2026-04-16 20:49 56.81437 -135.15322 13448 ft 426 kts 123°
2026-04-16 20:49 56.79765 -135.10807 14286 ft 430 kts 124°
2026-04-16 20:50 56.78074 -135.06253 15001 ft 437 kts 124°
2026-04-16 20:50 56.76341 -135.01627 15625 ft 447 kts 124°
2026-04-16 20:50 56.74570 -134.96928 15981 ft 450 kts 124°
2026-04-16 20:50 56.72800 -134.92238 16330 ft 449 kts 124°
2026-04-16 20:51 56.71046 -134.87588 16541 ft 451 kts 124°
2026-04-16 20:51 56.69259 -134.82883 16835 ft 453 kts 124°
2026-04-16 20:51 56.67487 -134.78192 17009 ft 448 kts 124°
2026-04-16 20:51 56.65707 -134.73473 16991 ft 455 kts 124°
2026-04-16 20:52 56.63914 -134.68712 16982 ft 458 kts 124°
2026-04-16 20:52 56.62100 -134.63942 16993 ft 458 kts 124°
2026-04-16 20:52 56.60286 -134.59203 16983 ft 457 kts 124°
2026-04-16 20:52 56.58474 -134.54477 16991 ft 456 kts 124°
2026-04-16 20:53 56.56662 -134.49753 16995 ft 456 kts 124°
2026-04-16 20:53 56.54848 -134.45030 16995 ft 456 kts 124°
2026-04-16 20:53 56.53033 -134.40311 16995 ft 456 kts 124°
2026-04-16 20:53 56.51217 -134.35595 16991 ft 457 kts 124°
2026-04-16 20:54 56.49398 -134.30880 16992 ft 457 kts 124°
2026-04-16 20:54 56.47600 -134.26227 16993 ft 457 kts 124°
2026-04-16 20:54 56.45776 -134.21517 16995 ft 457 kts 125°
2026-04-16 20:54 56.43945 -134.16799 16989 ft 457 kts 125°
2026-04-16 20:55 56.42113 -134.12087 16988 ft 457 kts 125°
2026-04-16 20:55 56.40279 -134.07380 16990 ft 457 kts 125°
2026-04-16 20:55 56.38448 -134.02688 16997 ft 457 kts 125°
2026-04-16 20:55 56.36610 -133.97985 16996 ft 456 kts 125°
2026-04-16 20:56 56.34803 -133.93364 16991 ft 456 kts 125°
2026-04-16 20:56 56.32972 -133.88698 16997 ft 456 kts 125°
2026-04-16 20:56 56.31131 -133.84025 16990 ft 458 kts 125°
2026-04-16 20:56 56.29287 -133.79349 17002 ft 458 kts 125°
2026-04-16 20:57 56.27442 -133.74679 17004 ft 458 kts 125°
2026-04-16 20:57 56.25590 -133.69998 17005 ft 458 kts 125°
2026-04-16 20:57 56.23735 -133.65319 17002 ft 458 kts 125°
2026-04-16 20:57 56.21877 -133.60640 17008 ft 458 kts 125°
2026-04-16 20:58 56.20023 -133.55977 17001 ft 458 kts 125°
2026-04-16 20:58 56.18191 -133.51380 17018 ft 458 kts 125°
2026-04-16 20:58 56.16334 -133.46729 17004 ft 458 kts 125°
2026-04-16 20:58 56.14478 -133.42091 17010 ft 458 kts 125°
2026-04-16 20:59 56.12609 -133.37431 16996 ft 458 kts 125°
2026-04-16 20:59 56.10748 -133.32799 16999 ft 458 kts 125°
2026-04-16 20:59 56.08887 -133.28161 17007 ft 458 kts 125°
2026-04-16 20:59 56.07027 -133.23538 17008 ft 458 kts 125°
2026-04-16 21:00 56.05157 -133.18919 17030 ft 458 kts 125°
2026-04-16 21:00 56.03281 -133.14292 17009 ft 459 kts 126°
2026-04-16 21:00 56.01432 -133.09736 17015 ft 459 kts 126°
2026-04-16 21:00 55.99558 -133.05125 17010 ft 459 kts 126°
2026-04-16 21:01 55.97680 -133.00514 17013 ft 459 kts 125°
2026-04-16 21:01 55.95803 -132.95909 17018 ft 458 kts 125°
2026-04-16 21:01 55.93925 -132.91312 16365 ft 460 kts 126°
2026-04-16 21:01 55.92071 -132.86784 15781 ft 443 kts 126°
2026-04-16 21:02 55.90296 -132.82460 15595 ft 420 kts 126°
2026-04-16 21:02 55.88618 -132.78366 15438 ft 399 kts 125°
2026-04-16 21:02 55.87005 -132.74439 14980 ft 389 kts 126°
2026-04-16 21:03 55.83818 -132.66732 13679 ft 383 kts 125°
2026-04-16 21:03 55.82269 -132.62983 12966 ft 379 kts 126°
2026-04-16 21:03 55.80704 -132.59198 12026 ft 381 kts 126°
2026-04-16 21:03 55.79126 -132.55386 11241 ft 380 kts 125°
2026-04-16 21:04 55.77571 -132.51637 10661 ft 374 kts 126°
2026-04-16 21:04 55.76041 -132.47966 10215 ft 364 kts 126°
2026-04-16 21:04 55.74569 -132.44441 10051 ft 347 kts 126°
2026-04-16 21:04 55.73166 -132.41083 9971 ft 329 kts 126°
2026-04-16 21:05 55.71838 -132.37907 9934 ft 312 kts 126°
2026-04-16 21:05 55.70567 -132.34870 9665 ft 304 kts 126°
2026-04-16 21:05 55.69306 -132.31858 9230 ft 303 kts 126°
2026-04-16 21:05 55.68051 -132.28865 8846 ft 301 kts 127°
2026-04-16 21:06 55.66808 -132.25901 8493 ft 297 kts 127°
2026-04-16 21:06 55.65582 -132.22983 8119 ft 292 kts 127°
2026-04-16 21:06 55.64395 -132.20162 7578 ft 287 kts 127°
2026-04-16 21:06 55.63195 -132.17345 7001 ft 284 kts 130°
2026-04-16 21:07 55.61815 -132.14892 6459 ft 278 kts 140°
2026-04-16 21:07 55.60346 -132.12701 5830 ft 275 kts 142°
2026-04-16 21:07 55.58873 -132.10517 5350 ft 277 kts 141°
2026-04-16 21:07 55.57409 -132.08302 4960 ft 276 kts 141°
2026-04-16 21:08 55.55992 -132.06133 4816 ft 264 kts 140°
2026-04-16 21:08 55.54655 -132.04031 4789 ft 251 kts 139°
2026-04-16 21:08 55.53407 -132.01968 4743 ft 241 kts 138°
2026-04-16 21:08 55.52195 -131.99917 4425 ft 239 kts 137°
2026-04-16 21:09 55.51031 -131.97927 4108 ft 231 kts 137°
2026-04-16 21:09 55.49903 -131.95992 3811 ft 220 kts 137°
2026-04-16 21:09 55.48828 -131.94145 3519 ft 211 kts 137°
2026-04-16 21:09 55.47795 -131.92374 3240 ft 203 kts 137°
2026-04-16 21:10 55.46803 -131.90672 2989 ft 196 kts 137°
2026-04-16 21:10 55.45840 -131.89021 2730 ft 189 kts 137°
2026-04-16 21:10 55.44923 -131.87447 2479 ft 177 kts 138°
2026-04-16 21:10 55.44093 -131.86020 2267 ft 161 kts 137°
2026-04-16 21:11 55.43337 -131.84723 2102 ft 143 kts 137°
2026-04-16 21:11 55.42648 -131.83542 1899 ft 134 kts 137°
2026-04-16 21:11 55.41972 -131.82384 1723 ft 134 kts 137°
2026-04-16 21:11 55.41342 -131.81301 1527 ft 122 kts 137°
2026-04-16 21:12 55.40750 -131.80284 1394 ft 118 kts 137°
2026-04-16 21:12 55.40158 -131.79267 1226 ft 118 kts 136°
2026-04-16 21:12 55.39562 -131.78244 1082 ft 122 kts 135°
2026-04-16 21:12 55.38950 -131.77197 959 ft 124 kts 135°
2026-04-16 21:13 55.38338 -131.76130 752 ft 123 kts 135°
2026-04-16 21:13 55.37724 -131.75089 568 ft 121 kts 134°
2026-04-16 21:13 55.37126 -131.74061 383 ft 120 kts 134°
2026-04-16 21:13 55.36542 -131.73053 234 ft 119 kts 134°
2026-04-16 21:14 55.35952 -131.72054 107 ft 111 kts 132°
2026-04-16 21:14 55.35479 -131.71240 98 ft 76 kts 136°
2026-04-16 21:14 55.35199 -131.70760 97 ft 45 kts 135°
2026-04-16 21:14 55.34998 -131.70415 99 ft 27 kts 135°
2026-04-16 21:15 55.34889 -131.70225 99 ft 13 kts 135°
2026-04-16 21:15 55.34858 -131.70109 100 ft 9 kts 80°
2026-04-16 21:15 55.34900 -131.70031 100 ft 9 kts 13°
2026-04-16 21:15 55.34956 -131.70072 100 ft 9 kts 317°
2026-04-16 21:16 55.35003 -131.70142 100 ft 9 kts 317°
2026-04-16 21:16 55.35047 -131.70217 97 ft 9 kts 316°
2026-04-16 21:16 55.35098 -131.70301 97 ft 12 kts 317°
2026-04-16 21:16 55.35169 -131.70414 89 ft 17 kts 318°
2026-04-16 21:17 55.35281 -131.70592 64 ft 24 kts 316°
2026-04-16 21:17 55.35365 -131.70736 51 ft 18 kts 315°
2026-04-16 21:17 55.35475 -131.70923 41 ft 19 kts 316°
2026-04-16 21:17 55.35531 -131.71018 41 ft 9 kts 316°
2026-04-16 21:18 55.35581 -131.71074 41 ft 8 kts 16°
2026-04-16 21:18 55.35611 -131.71027 38 ft 5 kts 46°
2026-04-16 21:18 55.35626 -131.71000 38 ft 2 kts 44°
2026-04-16 21:18 55.35635 -131.70985 41 ft 0 kts 45°
2026-04-16 21:19 55.35635 -131.70984 41 ft 0 kts 45°